Terminal Aerodrome Forecast
Issued by NWS Brownsville, TX

Home | Current Version | Previous Version | Text Only | Print | Product List | Glossary On
Versions: 1 2 3 4 5 6 7 8 9 10 11 12 13 14 15 16 17 18 19 20 21 22 23 24 25 26
000
FTUS44 KBRO 190520
TAFHRL
TAF
KHRL 190520Z 1906/2006 15014KT P6SM BKN012
     FM190800 16015KT P6SM OVC007
     FM191300 16015G22KT P6SM OVC015
     FM191600 17025G32KT P6SM SCT035
     FM200400 15015KT P6SM BKN015=

USA.gov is the U.S. government's official web portal to all federal, state and local government web resources and services.